QPF
0.00 0.00 0.00 0.00 0.00 0.00 0.00 0.00 0.00 0.00 0.00 0.00 0.00 0.00 0.00 0.00 0.00 0.00 0.00 0.00 0.00 0.00 0.00 0.00 0.00 0.00 0.00 0.00 0.00 0.00 0.00 0.00 0.00 0.00 0.00 0.00 0.00 0.00 0.00 0.00 0.00 0.00 0.00 0.00
0.00 0.00 0.00 0.00 0.00 0.00 0.00 0.00 0.00 0.00 0.00 0.00 0.00 0.00 0.00 0.00 0.00 0.00 0.00 0.00 0.00 0.00 0.00 0.00 0.00 0.00 0.00 0.00 0.00 0.00 0.00 0.00 0.00 0.00 0.00 0.00 0.00 0.00 0.00 0.00 0.00 0.01 0.00 0.00
0.00 0.00 0.00 0.00 0.00 0.00 0.00 0.00 0.00 0.00 0.00 0.00 0.00 0.00 0.00 0.00 0.00 0.00 0.00 0.00 0.00 0.00 0.00 0.00 0.00 0.00 0.00 0.00 0.00 0.00 0.00 0.00 0.01 0.01 0.02 0.00 0.00 0.00 0.00 0.00 0.00 0.00 0.00 0.00
0.00 0.00 0.00 0.00 0.00 0.00 0.00 0.00 0.00 0.00 0.00 0.00 0.00 0.00 0.00 0.00 0.00 0.00 0.00 0.00 0.00 0.00 0.00 0.00 0.00 0.00 0.00 0.00 0.00 0.00 0.00 0.00 0.00 0.00 0.02 0.02 0.00 0.00 0.00 0.00 0.00 0.00 0.00 0.00
0.00 0.00 0.00 0.00 0.00 0.00 0.00 0.00 0.00 0.00 0.00 0.00 0.00 0.00 0.00 0.00 0.00 0.00 0.00 0.00 0.00 0.00 0.00 0.00 0.00 0.00 0.00 0.00 0.00 0.00 0.00 0.00 0.00 0.00 0.00 0.01 0.01 0.02 0.02 0.02 0.02 0.00 0.00 0.00
0.00 0.00 0.00 0.00 0.00 0.00 0.00 0.00 0.00 0.00 0.00 0.00 0.00 0.00 0.00 0.00 0.00 0.00 0.00 0.00 0.00 0.00 0.00 0.00 0.00 0.00 0.00 0.00 0.00 0.00 0.00 0.00 0.00 0.00 0.00 0.00 0.00 0.00 0.00 0.00 0.02 0.03 0.04 0.02
0.00 0.00 0.01 0.00 0.00 0.00 0.00 0.00 0.00 0.00 0.00 0.00 0.00 0.00 0.00 0.00 0.00 0.00 0.00 0.00 0.00 0.00 0.00 0.00 0.00 0.00 0.00 0.00 0.00 0.00 0.00 0.00 0.00 0.00 0.00 0.00 0.00 0.00 0.00 0.00 0.00 0.03 0.06 0.05
0.00 0.00 0.01 0.01 0.01 0.01 0.01 0.00 0.00 0.00 0.00 0.00 0.00 0.00 0.00 0.00 0.00 0.00 0.00 0.00 0.00 0.00 0.00 0.00 0.00 0.00 0.00 0.00 0.00 0.00 0.00 0.00 0.00 0.00 0.00 0.00 0.00 0.00 0.00 0.00 0.00 0.00 0.00 0.01
0.00 0.00 0.01 0.00 0.00 0.01 0.00 0.00 0.00 0.00 0.00 0.00 0.00 0.00 0.00 0.00 0.00 0.00 0.00 0.00 0.00 0.00 0.00 0.00 0.00 0.00 0.00 0.00 0.00 0.00 0.00 0.00 0.00 0.00 0.00 0.00 0.00 0.00 0.00 0.00 0.00 0.00 0.00 0.00
0.00 0.00 0.00 0.00 0.00 0.00 0.01 0.01 0.01 0.02 0.02 0.01 0.00 0.00 0.00 0.00 0.00 0.00 0.00 0.00 0.00 0.00 0.00 0.00 0.00 0.00 0.00 0.00 0.00 0.00 0.00 0.00 0.00 0.00 0.00 0.00 0.00 0.00 0.00 0.00 0.00 0.00 0.00 0.00
0.00 0.00 0.00 0.00 0.00 0.00 0.01 0.00 0.01 0.02 0.02 0.01 0.00 0.00 0.00 0.00 0.00 0.00 0.00 0.00 0.00 0.00 0.00 0.00 0.00 0.00 0.00 0.00 0.00 0.00 0.00 0.00 0.00 0.00 0.00 0.00 0.00 0.00 0.00 0.00 0.00 0.00 0.00 0.00
0.00 0.01 0.01 0.00 0.01 0.02 0.02 0.01 0.01 0.01 0.01 0.02 0.02 0.00 0.00 0.00 0.00 0.00 0.00 0.00 0.00 0.00 0.00 0.00 0.00 0.00 0.00 0.00 0.00 0.00 0.00 0.00 0.00 0.00 0.00 0.00 0.00 0.00 0.00 0.00 0.00 0.00 0.00 0.00
0.00 0.01 0.00 0.00 0.00 0.01 0.00 0.01 0.02 0.02 0.03 0.02 0.02 0.00 0.00 0.00 0.00 0.00 0.00 0.00 0.00 0.00 0.00 0.00 0.00 0.00 0.00 0.00 0.00 0.00 0.00 0.00 0.00 0.00 0.00 0.00 0.00 0.00 0.00 0.00 0.00 0.00 0.00 0.00
0.00 0.00 0.00 0.00 0.00 0.00 0.00 0.00 0.00 0.00 0.01 0.01 0.00 0.00 0.00 0.00 0.00 0.00 0.00 0.00 0.00 0.00 0.00 0.00 0.00 0.00 0.00 0.00 0.00 0.00 0.00 0.00 0.00 0.00 0.00 0.00 0.00 0.00 0.00 0.00 0.00 0.00 0.00 0.00
0.00 0.00 0.00 0.00 0.00 0.00 0.00 0.00 0.00 0.00 0.00 0.01 0.00 0.00 0.00 0.01 0.01 0.00 0.00 0.00 0.00 0.00 0.00 0.00 0.00 0.00 0.00 0.00 0.00 0.00 0.00 0.00 0.00 0.00 0.00 0.00 0.00 0.00 0.00 0.00 0.00 0.00 0.00 0.00
0.00 0.00 0.00 0.00 0.00 0.00 0.00 0.00 0.00 0.00 0.00 0.00 0.00 0.00 0.00 0.00 0.01 0.01 0.00 0.00 0.00 0.00 0.00 0.00 0.00 0.00 0.00 0.00 0.00 0.00 0.00 0.00 0.00 0.00 0.00 0.00 0.00 0.00 0.00 0.00 0.00 0.00 0.00 0.00
0.00 0.00 0.01 0.00 0.00 0.00 0.00 0.02 0.03 0.03 0.02 0.00 0.00 0.00 0.00 0.00 0.00 0.00 0.00 0.00 0.00 0.00 0.00 0.00 0.00 0.00 0.00 0.00 0.00 0.00 0.00 0.00 0.00 0.00 0.00 0.00 0.00 0.00 0.00 0.00 0.00 0.00 0.00 0.00
0.00 0.00 0.00 0.00 0.00 0.00 0.01 0.02 0.00 0.00 0.01 0.01 0.01 0.02 0.01 0.01 0.00 0.00 0.00 0.00 0.00 0.00 0.00 0.00 0.00 0.00 0.00 0.00 0.00 0.00 0.00 0.00 0.00 0.00 0.00 0.00 0.00 0.00 0.00 0.00 0.00 0.00 0.00 0.00
0.00 0.00 0.00 0.00 0.01 0.00 0.03 0.07 0.03 0.01 0.01 0.04 0.01 0.00 0.00 0.00 0.00 0.00 0.00 0.00 0.00 0.00 0.00 0.00 0.00 0.00 0.00 0.00 0.00 0.00 0.00 0.00 0.00 0.00 0.00 0.00 0.00 0.00 0.00 0.00 0.00 0.00 0.00 0.00
0.00 0.00 0.00 0.00 0.01 0.00 0.03 0.02 0.00 0.00 0.02 0.02 0.00 0.00 0.00 0.00 0.00 0.00 0.00 0.00 0.00 0.00 0.00 0.00 0.00 0.00 0.00 0.00 0.00 0.00 0.00 0.00 0.00 0.00 0.00 0.00 0.00 0.00 0.00 0.00 0.00 0.00 0.00 0.00
0.00 0.00 0.00 0.00 0.01 0.01 0.03 0.00 0.00 0.00 0.01 0.00 0.00 0.00 0.00 0.00 0.00 0.00 0.00 0.00 0.00 0.00 0.00 0.00 0.00 0.00 0.00 0.00 0.00 0.00 0.00 0.00 0.00 0.00 0.00 0.00 0.00 0.00 0.00 0.00 0.00 0.00 0.00 0.00
0.03 0.03 0.03 0.03 0.03 0.04 0.01 0.00 0.00 0.01 0.00 0.00 0.00 0.00 0.00 0.00 0.00 0.00 0.00 0.00 0.00 0.00 0.00 0.00 0.00 0.00 0.00 0.00 0.00 0.00 0.00 0.00 0.00 0.00 0.00 0.00 0.00 0.00 0.00 0.00 0.00 0.00 0.00 0.00
0.06 0.04 0.03 0.02 0.03 0.03 0.00 0.00 0.00 0.00 0.00 0.00 0.01 0.00 0.01 0.00 0.00 0.00 0.00 0.00 0.00 0.00 0.00 0.00 0.00 0.00 0.00 0.00 0.00 0.00 0.00 0.00 0.00 0.00 0.00 0.00 0.00 0.00 0.00 0.00 0.00 0.00 0.01 0.00
0.02 0.00 0.00 0.00 0.00 0.00 0.00 0.00 0.00 0.00 0.00 0.01 0.01 0.01 0.00 0.00 0.00 0.00 0.00 0.00 0.00 0.00 0.00 0.00 0.00 0.00 0.00 0.00 0.00 0.00 0.00 0.00 0.00 0.00 0.00 0.00 0.00 0.00 0.00 0.00 0.00 0.00 0.00 0.00
0.00 0.00 0.00 0.00 0.00 0.00 0.00 0.00 0.00 0.00 0.00 0.01 0.01 0.00 0.00 0.00 0.00 0.00 0.00 0.00 0.00 0.00 0.00 0.00 0.00 0.00 0.00 0.00 0.00 0.00 0.00 0.00 0.00 0.00 0.00 0.00 0.02 0.02 0.00 0.00 0.00 0.00 0.00 0.02
0.00 0.00 0.00 0.00 0.00 0.00 0.00 0.00 0.00 0.01 0.01 0.01 0.00 0.00 0.00 0.00 0.00 0.00 0.00 0.00 0.00 0.00 0.00 0.00 0.00 0.00 0.00 0.00 0.00 0.00 0.00 0.00 0.00 0.00 0.00 0.00 0.01 0.03 0.02 0.00 0.00 0.00 0.02 0.10
MSLP
1007.25 1007.68 1007.72 1007.42 1007.07 1006.77 1006.55 1006.08 1005.29 1004.20 1003.40 1003.08 1002.65 1001.51 1001.73 1002.06 1002.28 1002.34 1002.54 1002.96 1003.15 1003.47 1003.76 1004.18 1004.90 1005.21 1005.71 1006.27 1006.57 1006.85 1007.11 1007.51 1007.40 1006.94 1007.50 1007.98 1007.96 1008.12 1007.97 1008.69 1007.94 1009.28 1009.55 1009.99
1007.48 1007.18 1006.53 1006.06 1005.86 1005.68 1005.56 1005.39 1004.98 1003.99 1003.47 1003.35 1003.08 1002.37 1001.69 1001.76 1002.02 1002.34 1002.76 1002.86 1003.02 1003.41 1003.70 1004.55 1005.32 1005.63 1005.89 1006.44 1006.76 1007.03 1007.42 1007.62 1007.72 1007.53 1007.06 1007.35 1007.99 1007.89 1008.15 1008.45 1008.54 1009.49 1008.83 1009.45
1007.00 1006.35 1005.55 1005.21 1004.93 1004.91 1005.04 1005.15 1004.86 1004.67 1004.21 1003.69 1003.74 1003.13 1002.50 1002.10 1002.02 1002.02 1001.98 1002.54 1002.77 1003.06 1003.64 1004.02 1005.06 1005.70 1006.26 1006.69 1006.93 1007.25 1007.60 1007.83 1007.79 1007.67 1008.02 1008.19 1007.80 1008.24 1008.35 1008.86 1008.44 1007.63 1009.54 1008.30
1006.31 1005.62 1005.15 1004.68 1004.48 1004.67 1004.78 1004.95 1005.08 1005.48 1005.19 1005.26 1004.53 1004.36 1003.30 1002.68 1002.19 1002.12 1001.72 1001.85 1002.38 1002.67 1003.02 1003.44 1004.43 1005.41 1006.02 1006.53 1006.86 1007.29 1007.64 1007.77 1007.80 1007.92 1008.47 1008.51 1008.53 1007.15 1007.89 1007.90 1008.50 1008.53 1008.66 1008.25
1005.71 1005.38 1005.12 1004.76 1004.38 1004.34 1004.82 1005.09 1005.66 1006.15 1006.51 1005.98 1005.31 1005.33 1003.51 1002.88 1002.30 1001.58 1001.05 1000.90 1001.78 1002.20 1002.59 1003.41 1004.27 1004.81 1005.47 1006.02 1006.74 1007.21 1007.60 1007.83 1007.93 1008.13 1008.28 1008.46 1008.71 1008.27 1007.09 1007.88 1007.70 1007.72 1007.94 1008.41
1005.72 1005.38 1005.31 1005.36 1004.99 1005.14 1004.87 1005.54 1006.37 1007.13 1007.69 1007.38 1006.13 1006.05 1003.81 1003.27 1002.26 1001.35 1001.05 1000.52 1001.19 1002.00 1002.80 1003.67 1004.37 1004.97 1005.54 1005.86 1006.47 1006.96 1007.40 1007.69 1007.70 1007.80 1007.78 1007.79 1007.82 1007.65 1007.59 1007.01 1007.45 1007.69 1008.05 1008.34
1006.09 1006.55 1005.99 1006.47 1006.06 1006.42 1006.84 1007.33 1008.53 1009.02 1008.94 1007.77 1007.06 1006.46 1003.64 1003.04 1001.98 1000.48 1000.34 1000.42 1000.90 1001.79 1002.87 1003.79 1004.55 1005.31 1005.66 1006.14 1006.51 1006.89 1007.19 1007.40 1007.39 1007.43 1007.49 1007.43 1007.38 1007.61 1007.77 1006.66 1007.95 1007.82 1007.51 1007.90
1007.78 1008.15 1006.83 1007.53 1007.54 1008.29 1009.24 1010.27 1010.42 1010.02 1009.98 1008.84 1007.88 1006.13 1004.08 1002.69 1001.87 999.30 998.99 1000.02 1000.91 1001.88 1002.74 1003.40 1003.97 1004.46 1005.20 1005.83 1006.34 1006.62 1007.00 1007.19 1007.28 1007.19 1007.23 1006.96 1007.13 1007.14 1006.93 1007.17 1007.22 1007.30 1007.21 1007.03
1007.88 1008.26 1008.23 1007.83 1007.49 1007.95 1008.56 1010.37 1009.61 1010.72 1010.74 1010.37 1008.24 1005.90 1004.00 1003.16 1002.38 1000.98 1000.62 1001.13 1001.86 1002.36 1002.98 1003.28 1003.82 1004.25 1004.59 1005.11 1005.72 1005.86 1006.19 1006.51 1006.71 1006.82 1006.96 1006.94 1006.69 1006.84 1006.77 1006.43 1006.47 1006.76 1006.92 1007.21
1008.99 1008.96 1007.98 1007.04 1007.16 1007.24 1008.18 1008.74 1010.51 1011.54 1011.30 1010.19 1008.00 1006.16 1004.78 1003.99 1003.74 1002.84 1002.65 1002.10 1002.33 1002.45 1002.83 1003.47 1003.82 1004.06 1004.24 1004.55 1004.68 1005.04 1005.37 1005.79 1005.99 1006.27 1006.41 1006.36 1006.36 1006.41 1006.36 1006.37 1006.43 1006.36 1006.31 1006.82
1009.27 1010.06 1009.36 1008.17 1007.61 1007.88 1008.52 1009.14 1010.40 1011.58 1010.60 1009.83 1008.81 1006.49 1004.89 1004.51 1004.22 1003.66 1003.69 1003.77 1002.99 1002.83 1003.15 1003.41 1003.67 1003.69 1003.88 1004.03 1004.48 1004.77 1005.02 1005.27 1005.49 1005.63 1005.74 1005.81 1005.95 1006.01 1006.01 1006.13 1006.07 1006.05 1005.83 1005.73
1010.26 1010.89 1010.19 1009.19 1007.94 1008.52 1009.17 1010.15 1011.65 1012.10 1011.04 1009.66 1009.02 1006.51 1004.84 1004.24 1004.11 1003.93 1004.79 1003.50 1003.72 1004.35 1004.55 1004.10 1003.19 1002.94 1003.14 1003.59 1004.05 1004.30 1004.50 1004.86 1005.16 1005.50 1005.74 1005.79 1005.54 1005.32 1005.28 1005.25 1005.24 1005.22 1005.42 1005.32
1010.15 1010.42 1010.50 1009.30 1008.81 1009.15 1009.39 1009.74 1010.32 1010.94 1011.18 1010.36 1009.45 1007.04 1005.23 1004.69 1004.86 1004.45 1004.49 1004.27 1004.43 1004.80 1004.95 1004.26 1004.08 1003.70 1002.70 1002.84 1003.11 1003.44 1003.50 1003.78 1004.01 1004.36 1004.77 1005.07 1005.26 1005.26 1005.16 1004.82 1004.52 1004.37 1004.52 1004.59
1009.60 1010.30 1010.65 1010.42 1009.61 1009.17 1008.82 1008.71 1008.94 1010.15 1010.14 1009.14 1008.15 1006.90 1005.83 1004.91 1004.36 1004.39 1004.34 1004.05 1005.36 1005.24 1005.32 1005.17 1005.30 1004.85 1003.18 1003.04 1002.99 1003.15 1003.39 1003.59 1003.83 1004.09 1004.33 1004.74 1004.86 1005.00 1005.10 1004.67 1004.40 1004.09 1004.05 1004.05
1009.72 1010.34 1010.49 1010.16 1009.40 1008.57 1008.01 1007.75 1008.02 1008.30 1008.35 1008.07 1007.24 1006.38 1005.70 1006.28 1006.05 1005.70 1005.09 1005.12 1005.08 1004.97 1005.26 1004.43 1004.59 1004.55 1004.38 1003.34 1003.15 1003.23 1003.44 1003.61 1003.77 1004.01 1004.23 1004.40 1004.57 1004.55 1004.46 1004.43 1004.02 1003.57 1003.31 1003.18
1009.85 1010.50 1010.59 1010.06 1009.28 1008.66 1008.35 1007.48 1006.90 1007.38 1007.47 1007.35 1007.18 1006.40 1005.82 1006.01 1006.36 1005.91 1005.52 1005.19 1005.17 1004.93 1004.47 1004.13 1004.05 1003.55 1003.22 1002.82 1002.80 1002.87 1002.95 1003.05 1003.21 1003.45 1003.67 1003.90 1004.07 1004.25 1004.27 1004.11 1003.49 1002.97 1002.71 1002.52
1010.29 1010.68 1010.96 1010.23 1009.60 1008.97 1008.26 1008.07 1007.64 1007.85 1008.00 1008.27 1007.36 1007.33 1006.89 1006.21 1006.21 1005.88 1005.62 1005.30 1004.99 1004.75 1004.08 1003.65 1003.17 1002.74 1002.43 1002.17 1002.01 1002.02 1002.16 1002.24 1002.44 1002.63 1002.80 1002.94 1003.13 1003.29 1003.43 1003.22 1002.88 1001.80 1001.90 1001.90
1010.29 1010.94 1011.43 1011.10 1010.29 1009.42 1009.32 1008.95 1008.89 1008.34 1007.80 1007.61 1007.70 1007.15 1007.17 1006.66 1006.12 1005.64 1005.38 1004.86 1004.57 1004.40 1004.08 1003.46 1003.11 1002.43 1001.89 1001.70 1001.62 1001.58 1001.53 1001.68 1001.86 1001.85 1001.83 1001.91 1002.07 1001.99 1001.97 1002.20 1001.93 1001.54 1001.17 1001.21
1010.08 1011.06 1011.84 1011.89 1011.51 1009.91 1008.33 1008.80 1008.23 1008.27 1008.19 1008.33 1008.29 1007.79 1007.16 1006.54 1005.72 1005.20 1004.89 1004.57 1004.41 1004.15 1003.61 1003.03 1002.49 1001.96 1001.50 1001.32 1001.05 1000.86 1000.84 1000.92 1001.05 1000.93 1000.83 1000.81 1000.84 1000.83 1000.91 1000.91 1000.85 1000.85 1000.51 1000.30
1010.29 1010.86 1012.09 1012.32 1012.19 1010.80 1010.15 1008.97 1008.49 1007.74 1008.18 1008.30 1008.21 1008.01 1007.57 1007.04 1006.01 1005.24 1005.17 1004.84 1004.34 1003.92 1003.51 1002.83 1002.22 1001.52 1000.93 1000.40 1000.31 1000.17 999.99 999.96 999.81 999.84 999.64 999.61 999.68 999.80 999.73 999.79 1000.02 1000.17 999.92 999.84
1010.97 1011.53 1012.19 1012.44 1012.33 1010.75 1009.96 1009.19 1008.33 1008.99 1009.85 1009.07 1008.91 1008.39 1007.81 1007.30 1006.89 1004.74 1004.46 1003.70 1003.54 1002.82 1002.27 1001.87 1001.26 1000.44 999.75 999.44 999.11 998.63 998.58 998.56 998.61 998.60 998.40 998.59 998.59 998.79 998.81 999.03 999.19 999.07 999.48 999.06
1011.17 1011.60 1011.94 1012.06 1011.98 1011.17 1010.48 1009.87 1010.54 1010.55 1009.82 1009.47 1008.87 1008.17 1007.38 1006.43 1005.50 1004.72 1003.65 1002.80 1001.95 1001.19 1000.49 1000.13 999.68 998.89 998.50 998.38 998.13 997.67 997.41 997.45 997.59 997.48 997.35 997.45 997.68 997.83 997.80 997.99 998.14 998.41 998.53 998.29
1011.33 1011.76 1012.18 1012.18 1011.54 1011.10 1010.86 1010.83 1010.52 1010.26 1009.94 1009.20 1008.54 1007.70 1006.75 1005.43 1004.63 1003.84 1002.57 1001.40 1000.46 999.79 999.00 998.65 998.04 997.27 996.78 996.84 996.77 996.17 995.68 996.26 996.44 996.42 996.34 996.47 996.80 996.78 996.82 997.07 997.22 997.52 997.37 997.72
1011.52 1011.72 1012.23 1012.56 1011.28 1011.39 1010.74 1010.45 1010.37 1010.06 1009.74 1008.73 1007.78 1006.87 1005.98 1005.66 1004.59 1003.25 1001.93 1000.38 999.32 998.39 997.62 997.11 996.56 995.83 994.96 995.22 995.13 994.70 994.77 995.02 995.17 995.28 995.38 995.48 995.70 995.77 995.95 996.08 996.32 996.63 996.64 997.17
1012.23 1012.31 1013.15 1012.61 1011.86 1011.55 1010.64 1010.84 1010.55 1009.76 1009.04 1007.80 1006.80 1005.99 1005.45 1004.88 1003.41 1002.53 1001.18 999.76 998.37 997.21 996.16 995.57 994.88 994.18 993.42 993.38 993.27 993.36 993.53 993.78 993.87 994.09 994.33 994.43 994.63 994.83 995.00 995.13 995.33 995.51 995.75 996.18
1012.95 1013.40 1013.67 1013.36 1012.90 1013.04 1011.92 1011.14 1010.36 1009.42 1008.33 1006.99 1005.90 1005.12 1004.75 1004.25 1002.72 1001.42 1000.06 998.59 997.44 995.98 994.52 993.41 992.68 992.18 991.54 991.64 991.67 991.89 992.11 992.32 992.63 992.89 993.15 993.39 993.81 994.09 994.19 994.49 994.97 995.09 995.28 995.46
Thickness
5643 5625 5617 5630 5640 5645 5643 5641 5644 5664 5679 5676 5672 5687 5690 5696 5698 5698 5701 5703 5705 5708 5715 5716 5716 5720 5715 5722 5726 5729 5728 5731 5735 5744 5742 5743 5747 5752 5758 5756 5768 5757 5758 5756
5627 5618 5639 5649 5649 5645 5642 5636 5633 5652 5666 5668 5662 5665 5686 5691 5688 5690 5687 5693 5697 5699 5702 5700 5698 5706 5705 5704 5712 5715 5716 5716 5720 5726 5736 5736 5735 5743 5746 5747 5750 5741 5751 5752
5617 5631 5649 5646 5643 5638 5634 5626 5629 5629 5649 5660 5650 5645 5661 5676 5683 5690 5693 5690 5692 5691 5693 5696 5688 5690 5691 5691 5697 5698 5701 5704 5708 5713 5714 5717 5724 5725 5730 5730 5737 5747 5736 5753
5625 5640 5639 5638 5635 5635 5615 5638 5635 5626 5623 5602 5644 5597 5639 5655 5659 5670 5684 5689 5683 5685 5688 5692 5686 5678 5680 5683 5686 5688 5689 5690 5695 5700 5699 5702 5705 5721 5720 5724 5721 5726 5726 5737
5622 5626 5624 5623 5632 5638 5619 5633 5621 5617 5606 5604 5619 5595 5629 5649 5650 5665 5678 5689 5680 5681 5681 5679 5678 5678 5676 5674 5673 5677 5679 5678 5681 5685 5688 5691 5691 5699 5716 5715 5720 5726 5728 5731
5620 5634 5627 5621 5629 5628 5634 5621 5610 5604 5594 5573 5610 5597 5617 5632 5645 5661 5666 5675 5677 5674 5669 5667 5666 5665 5665 5668 5665 5665 5668 5669 5671 5673 5678 5682 5688 5694 5699 5709 5709 5712 5715 5715
5607 5599 5613 5608 5601 5607 5598 5590 5556 5553 5559 5570 5605 5588 5618 5634 5646 5659 5666 5665 5668 5668 5660 5657 5653 5651 5653 5653 5653 5653 5656 5659 5663 5666 5669 5673 5678 5682 5685 5698 5691 5697 5703 5707
5558 5558 5598 5587 5583 5571 5561 5559 5546 5548 5546 5570 5586 5575 5606 5634 5639 5666 5673 5666 5659 5653 5652 5653 5651 5649 5645 5645 5643 5645 5646 5649 5652 5656 5659 5664 5664 5668 5677 5679 5684 5688 5692 5701
5567 5562 5578 5580 5584 5582 5574 5547 5570 5546 5555 5542 5569 5594 5616 5624 5626 5645 5651 5648 5642 5642 5644 5642 5641 5642 5642 5640 5639 5640 5641 5641 5644 5650 5650 5654 5659 5661 5666 5675 5679 5680 5682 5685
5562 5546 5582 5590 5585 5584 5572 5575 5546 5532 5542 5538 5573 5587 5582 5601 5604 5619 5624 5634 5634 5638 5637 5631 5633 5633 5635 5638 5637 5637 5638 5637 5639 5641 5643 5648 5651 5653 5657 5661 5666 5670 5675 5673
5551 5539 5547 5566 5567 5563 5560 5556 5548 5539 5547 5541 5544 5570 5593 5591 5594 5603 5605 5608 5619 5625 5628 5629 5627 5627 5629 5631 5629 5629 5631 5632 5633 5635 5638 5641 5642 5644 5648 5651 5656 5660 5667 5673
5532 5512 5521 5540 5566 5555 5549 5538 5521 5524 5532 5548 5537 5554 5602 5599 5597 5597 5593 5607 5606 5605 5602 5610 5621 5625 5625 5623 5621 5623 5624 5625 5625 5626 5627 5629 5635 5639 5643 5649 5653 5657 5660 5665
5523 5519 5505 5529 5543 5540 5538 5540 5534 5517 5525 5532 5529 5545 5592 5587 5582 5590 5590 5594 5595 5589 5588 5598 5603 5605 5619 5621 5622 5619 5620 5622 5625 5625 5625 5625 5625 5628 5631 5640 5648 5654 5656 5660
5537 5523 5514 5500 5521 5526 5532 5542 5546 5533 5525 5539 5547 5557 5574 5581 5581 5581 5583 5587 5576 5577 5579 5584 5582 5587 5602 5605 5612 5613 5611 5612 5612 5613 5613 5612 5613 5615 5619 5628 5635 5642 5647 5653
5531 5520 5524 5526 5535 5542 5546 5553 5550 5546 5545 5540 5558 5561 5571 5553 5558 5563 5570 5568 5569 5574 5571 5579 5581 5582 5581 5591 5597 5599 5597 5598 5598 5598 5599 5600 5601 5604 5609 5615 5624 5634 5640 5647
5534 5517 5521 5525 5538 5542 5537 5551 5561 5553 5554 5546 5550 5556 5559 5553 5552 5555 5556 5561 5560 5563 5570 5573 5576 5577 5581 5585 5586 5587 5588 5588 5589 5590 5590 5588 5587 5588 5590 5597 5610 5621 5630 5636
5526 5517 5509 5514 5533 5534 5534 5535 5541 5539 5536 5531 5533 5535 5539 5545 5545 5541 5545 5550 5553 5553 5557 5560 5566 5572 5573 5574 5577 5577 5578 5579 5579 5581 5580 5580 5580 5579 5579 5583 5593 5611 5616 5622
5525 5519 5512 5497 5517 5516 5522 5521 5521 5528 5538 5537 5534 5539 5536 5538 5543 5543 5544 5543 5541 5542 5543 5549 5552 5557 5562 5562 5564 5564 5565 5566 5567 5568 5569 5571 5569 5570 5572 5572 5579 5591 5601 5607
5530 5518 5498 5482 5488 5526 5540 5527 5519 5526 5529 5525 5521 5524 5527 5529 5532 5535 5534 5532 5530 5529 5532 5535 5540 5543 5546 5548 5549 5550 5551 5552 5552 5555 5557 5559 5557 5558 5559 5562 5568 5574 5584 5594
5531 5524 5492 5495 5491 5477 5513 5529 5531 5533 5520 5519 5517 5514 5512 5511 5509 5521 5517 5517 5515 5514 5514 5517 5521 5525 5529 5534 5533 5532 5536 5540 5545 5546 5547 5548 5548 5547 5548 5549 5550 5555 5566 5579
5506 5509 5494 5494 5479 5512 5521 5526 5531 5498 5497 5508 5504 5499 5497 5492 5491 5512 5508 5512 5504 5506 5506 5505 5505 5511 5519 5522 5523 5528 5529 5532 5534 5534 5537 5537 5538 5537 5537 5535 5535 5541 5549 5569
5505 5504 5492 5505 5492 5490 5512 5513 5491 5490 5494 5488 5486 5486 5487 5493 5497 5495 5498 5497 5499 5501 5502 5501 5496 5504 5508 5508 5510 5517 5521 5524 5524 5524 5528 5529 5529 5530 5531 5529 5527 5533 5546 5563
5503 5504 5484 5497 5492 5508 5501 5495 5491 5485 5481 5482 5479 5482 5483 5494 5493 5490 5493 5497 5496 5495 5496 5495 5495 5501 5506 5504 5504 5513 5523 5517 5517 5516 5520 5521 5519 5523 5527 5528 5530 5535 5550 5562
5512 5512 5486 5491 5512 5494 5500 5496 5487 5481 5474 5479 5481 5480 5484 5474 5478 5478 5481 5486 5486 5488 5488 5487 5487 5492 5503 5501 5503 5512 5515 5513 5511 5511 5511 5512 5514 5518 5524 5531 5536 5543 5554 5561
5497 5498 5481 5489 5500 5489 5497 5482 5475 5474 5476 5483 5486 5485 5480 5473 5478 5471 5471 5475 5480 5482 5482 5480 5480 5483 5495 5500 5505 5509 5512 5510 5508 5507 5505 5506 5508 5513 5523 5533 5541 5552 5561 5569
5486 5478 5470 5471 5477 5469 5472 5471 5470 5475 5478 5484 5487 5487 5482 5473 5472 5474 5476 5482 5485 5486 5489 5490 5491 5491 5496 5500 5508 5514 5516 5514 5511 5509 5507 5509 5508 5511 5522 5532 5541 5545 5555 5566